Voltar ao catálogo

EKRAN 14

AtivoComunicaçõesGEO
NORAD 15626·PAYLOAD·🇷🇺 Russia

Lançado Mar 22, 1985 de Baikonur Cosmodrome

Loading…

TLE

AtualizadoSource: Space-Track

Época: Sep 14, 2026, 08:42 UTC

1 15626U 85024A   26257.36251841 -.00000138  00000-0  00000-0 0  9994
2 15626  11.7994 320.6426 0019053 357.5420 171.9452  0.94798249123120

Acompanhe EKRAN 14 em tempo real com AllMySat

Download on the App Store